User: anonymous   Login
Location: Albany
(35.0000°S, 118.0000°E)
Time: 09:50:27
(UTC-04:00)
Language:

Atlas Centaur 2 - Orbit

View from above orbital plane
View from above orbital plane
View from above satellite
View from above satellite

Ground track
Ground track

The orbit data is extracted from the following two-line orbital elements,

1   694U 63047A   17085.71400656 +.00000356 +00000-0 +35791-4 0  9992
2   694 030.3556 258.5715 0588184 036.0253 327.8559 14.02018261671131
Epoch (UTC): 26 March 2017 17:08:10
Eccentricity: 0.0588184
inclination: 30.3556°
perigee height: 459 km
apogee height: 1314 km
right ascension of ascending node: 258.5715°
argument of perigee: 36.0253°
revolutions per day: 14.02018261
mean anomaly at epoch: 327.8559°
orbit number at epoch: 67113

The dashed part of the orbit path shows where the satellite is in the earth's shadow,  

DLR